Chattanooga, TN

3:18 PM EDT on March 27, 2017 (GMT -0400)
Lovell

Weather History for KCHA - November, 2012

Change the Weather History Date:

Thursday, November 22, 2012

  Actual Average Record
Temperature  
Mean Temperature 54 °F 49 °F  
Max Temperature 69 °F 60 °F 75 °F (1940)
Min Temperature 38 °F 38 °F 19 °F (2008)
Degree Days  
Heating Degree Days 11 16  
Month to date heating degree days 300 275  
Since 1 July heating degree days 469 447  
Growing Degree Days 2 (Base 50)    
Moisture  
Dew Point 41 °F    
Average Humidity 68    
Maximum Humidity 100    
Minimum Humidity 35    
Precipitation  
Precipitation 0.00 in 0.19 in 3.00 in (1883)
Month to date precipitation 1.14 3.49  
Year to date precipitation 44.80 46.07  
Snow  
Snow 0.00 in 0.00 in - ()
Month to date snowfall 0.0 0.0  
Since 1 July snowfall 0.0 0.0  
Since 1 September snowfall 0.0 0.0  
Snow Depth 0.00 in    
Sea Level Pressure  
Sea Level Pressure 30.21 in    
Wind  
Wind Speed 1 mph (South)    
Max Wind Speed 9 mph    
Max Gust Speed 14 mph    
Visibility 9 miles    
Events Fog    
T = Trace of Precipitation, MM = Missing Value Source: NWS Daily Summary

Daily Weather History Graph

Daily Weather History Graph

Search for Another Location

Airport or City:

Trip Planner

Search our weather history database for the weather conditions in past years. The results will help you decide how hot, cold, wet, or windy it might be!

Date:

Astronomy

Nov. 22, 2012 Rise Set
Actual Time 7:22 AM EST 5:31 PM EST
Civil Twilight 6:55 AM EST 5:58 PM EST
Nautical Twilight 6:24 AM EST 6:29 PM EST
Astronomical Twilight 5:54 AM EST 6:59 PM EST
Moon 2:06 PM EST (11/22) 1:53 AM EST (11/22)
Length of Visible Light 11h 03m
Length of Day
10h 08m
Waxing Gibbous, 71% of the Moon is Illuminated
Nov 22
Waxing Gibbous
Nov 28
Full
Dec 6
Last Quarter
Dec 13
New
Dec 20
First Quarter

Hourly Weather History & Observations

Time (EST) Temp. Windchill Dew Point Humidity Pressure Visibility Wind Dir Wind Speed Gust Speed Precip Events Conditions
12:53 AM 45.0 °F - 42.1 °F 90% 30.19 in 10.0 mi Calm Calm - N/A   Clear
1:53 AM 44.1 °F - 43.0 °F 96% 30.19 in 10.0 mi Calm Calm - N/A   Clear
2:53 AM 42.1 °F - 41.0 °F 96% 30.20 in 10.0 mi Calm Calm - N/A   Clear
3:53 AM 41.0 °F - 39.9 °F 96% 30.21 in 10.0 mi Calm Calm - N/A   Clear
4:53 AM 39.9 °F - 39.0 °F 97% 30.22 in 10.0 mi Calm Calm - N/A   Clear
5:34 AM 39.2 °F 37.0 °F 37.4 °F 93% 30.22 in 8.0 mi SSW 3.5 mph - N/A   Scattered Clouds
5:53 AM 39.9 °F - 37.9 °F 93% 30.23 in 8.0 mi Calm Calm - N/A   Scattered Clouds
6:53 AM 39.0 °F - 37.9 °F 96% 30.25 in 8.0 mi Calm Calm - N/A   Partly Cloudy
7:53 AM 37.9 °F - 37.0 °F 97% 30.27 in 8.0 mi Calm Calm - N/A Fog Patches of Fog
8:53 AM 43.0 °F - 41.0 °F 93% 30.28 in 7.0 mi Calm Calm - N/A Fog Patches of Fog
9:53 AM 50.0 °F - 44.1 °F 80% 30.28 in 9.0 mi Calm Calm - N/A   Clear
10:53 AM 55.0 °F - 45.0 °F 69% 30.28 in 9.0 mi Calm Calm - N/A   Clear
11:53 AM 60.1 °F - 44.1 °F 55% 30.25 in 10.0 mi Calm Calm - N/A   Clear
12:53 PM 64.0 °F - 43.0 °F 46% 30.22 in 10.0 mi SSE 8.1 mph - N/A   Clear
1:53 PM 66.9 °F - 42.1 °F 40% 30.18 in 10.0 mi SE 4.6 mph - N/A   Clear
2:53 PM 68.0 °F - 42.1 °F 39% 30.17 in 10.0 mi SW 5.8 mph - N/A   Partly Cloudy
3:53 PM 68.0 °F - 39.0 °F 35% 30.16 in 10.0 mi SSE 4.6 mph - N/A   Scattered Clouds
4:53 PM 66.9 °F - 39.0 °F 36% 30.16 in 10.0 mi SSE 3.5 mph - N/A   Scattered Clouds
5:53 PM 60.1 °F - 41.0 °F 49% 30.16 in 10.0 mi Calm Calm - N/A   Mostly Cloudy
6:53 PM 54.0 °F - 42.1 °F 64% 30.17 in 10.0 mi Calm Calm - N/A   Mostly Cloudy
7:53 PM 52.0 °F - 42.1 °F 69% 30.18 in 10.0 mi Calm Calm - N/A   Mostly Cloudy
8:53 PM 48.9 °F - 43.0 °F 80% 30.18 in 10.0 mi Calm Calm - N/A   Mostly Cloudy
9:53 PM 46.9 °F - 43.0 °F 86% 30.19 in 10.0 mi Calm Calm - N/A   Mostly Cloudy
10:53 PM 48.0 °F - 42.1 °F 80% 30.17 in 10.0 mi Calm Calm - N/A   Scattered Clouds
11:53 PM 46.9 °F - 42.1 °F 83% 30.17 in 10.0 mi Calm Calm - N/A   Scattered Clouds